DW2537 Odenton MD US current weather conditions

sailwx.info

Wind from 154 at 1 knots gusting 4

Air temperature 18.9° C
Dewpoint 15.0° C

Last reported at 2020-Oct-01 14:52 UTC.
Time now 2020-Oct-01 15:25 UTC

Location: N 39°04' W 076°42'.
View on Google Maps.

See reports from other nearby stations

  
Tides and Currents Weather Stations Pressure Air Temp Water Temp Dewpoint Dewpoint Depression Visibility Wind Speed Wind Dir Waves Ship Positions
date/time (UTC)wind fromknots sea level pressurealtimeterstation pressurevisibilityair tempwater tempwave heightnotes
2020-Oct-01 15:02 270 0 gusting 4 18.9
2020-Oct-01 14:52 154 1 gusting 4 18.9
2020-Oct-01 14:46 161 18.9
2020-Oct-01 14:41 160 0 gusting 4 18.3
2020-Oct-01 14:36 140 18.3
2020-Oct-01 14:31 061 0 gusting 3 18.3
2020-Oct-01 14:26 194 0 gusting 3 18.3
2020-Oct-01 14:21 238 0 gusting 3 17.8
2020-Oct-01 14:16 129 17.8
2020-Oct-01 14:11 192 17.2
2020-Oct-01 14:05 174 1 gusting 3 16.7
2020-Oct-01 14:00 151 0 gusting 3 16.7
2020-Oct-01 13:55 181 1 gusting 3 16.1
2020-Oct-01 13:50 158 0 gusting 2 15.6
2020-Oct-01 13:45 158 0 gusting 2 15.6
2020-Oct-01 13:40 168 0 gusting 2 15.0
2020-Oct-01 13:35 182 0 gusting 2 15.0
2020-Oct-01 13:25 178 0 gusting 2 14.4
2020-Oct-01 13:20 042 0 gusting 2 14.4
2020-Oct-01 13:14 159 13.9
2020-Oct-01 13:09 185 1 gusting 2 13.9
2020-Oct-01 13:04 303 0 gusting 1 13.9
2020-Oct-01 12:59 136 1 gusting 1 13.9
2020-Oct-01 12:54 303 13.3
2020-Oct-01 12:49 185 13.3
2020-Oct-01 12:44 155 0 gusting 1 13.3
2020-Oct-01 12:39 169 13.3
2020-Oct-01 12:34 179 13.3
2020-Oct-01 12:29 179 13.3
2020-Oct-01 12:24 165 1 gusting 2 13.3
2020-Oct-01 12:19 165 12.8
2020-Oct-01 12:14 165 0 gusting 2 12.8
2020-Oct-01 12:09 165 12.8
2020-Oct-01 12:04 298 12.8
2020-Oct-01 11:59 298 12.8
2020-Oct-01 11:53 298 12.2
2020-Oct-01 11:48 298 12.2
2020-Oct-01 11:43 298 12.2
2020-Oct-01 11:38 298 12.2
2020-Oct-01 11:33 298 12.2
2020-Oct-01 11:28 298 12.2
2020-Oct-01 11:23 298 11.7
2020-Oct-01 11:18 298 11.7
2020-Oct-01 11:13 298 11.7
2020-Oct-01 11:08 298 11.7
2020-Oct-01 11:03 298 11.7
2020-Oct-01 10:58 298 11.7
2020-Oct-01 10:53 298 12.2
2020-Oct-01 10:47 298 12.2
2020-Oct-01 10:42 298 12.2
2020-Oct-01 10:38 298 12.2
2020-Oct-01 10:32 298 12.2
2020-Oct-01 10:27 298 12.2
2020-Oct-01 10:22 298 12.2
2020-Oct-01 10:17 299 12.2
2020-Oct-01 10:12 299 12.2
2020-Oct-01 10:07 298 12.2
2020-Oct-01 10:02 299 12.2
2020-Oct-01 09:57 299 12.2
2020-Oct-01 09:52 299 12.2
2020-Oct-01 09:47 299 12.2
2020-Oct-01 09:42 299 12.2
2020-Oct-01 09:36 299 12.2
2020-Oct-01 09:31 299 12.2
2020-Oct-01 09:26 299 12.2
2020-Oct-01 09:21 299 12.2
2020-Oct-01 09:16 299 12.2
2020-Oct-01 09:11 299 12.2
2020-Oct-01 09:06 299 12.2
2020-Oct-01 09:01 299 12.2
2020-Oct-01 08:56 299 12.2
2020-Oct-01 08:51 299 12.2
2020-Oct-01 08:46 299 12.2
2020-Oct-01 08:41 299 12.2
2020-Oct-01 08:36 299 12.2
2020-Oct-01 08:31 299 12.2
2020-Oct-01 08:25 299 12.2
2020-Oct-01 08:20 299 12.2
2020-Oct-01 08:15 302 12.2
2020-Oct-01 08:10 303 12.2
2020-Oct-01 08:05 303 12.2
2020-Oct-01 08:00 303 12.2
2020-Oct-01 07:55 303 12.2
2020-Oct-01 07:50 303 12.2
2020-Oct-01 07:45 303 12.2
2020-Oct-01 07:40 303 12.2
2020-Oct-01 07:35 303 12.2
2020-Oct-01 07:25 303 12.2
2020-Oct-01 07:20 303 12.2
2020-Oct-01 07:15 303 12.2
2020-Oct-01 07:10 303 12.2
2020-Oct-01 07:04 304 12.2
2020-Oct-01 06:59 304 12.2
2020-Oct-01 06:54 304 12.2
2020-Oct-01 06:49 304 12.2
2020-Oct-01 06:44 304 12.2
2020-Oct-01 06:39 304 12.8
2020-Oct-01 06:34 304 12.8
2020-Oct-01 06:29 304 12.8
2020-Oct-01 06:24 304 12.8
2020-Oct-01 06:19 304 12.8
2020-Oct-01 06:14 304 12.8
2020-Oct-01 06:09 304 12.8
2020-Oct-01 06:03 304 12.8
2020-Oct-01 05:58 304 12.8
2020-Oct-01 05:53 304 12.8
2020-Oct-01 05:48 304 12.8
2020-Oct-01 05:43 304 12.8
2020-Oct-01 05:38 304 12.8
2020-Oct-01 05:33 304 12.8
2020-Oct-01 05:28 304 12.8
2020-Oct-01 05:23 304 12.8
2020-Oct-01 05:18 304 12.8
2020-Oct-01 05:13 304 12.8
2020-Oct-01 05:08 304 13.3
2020-Oct-01 05:03 304 13.3
2020-Oct-01 04:58 304 13.3
2020-Oct-01 04:53 304 13.3
2020-Oct-01 04:48 304 13.3
2020-Oct-01 04:42 304 13.3
2020-Oct-01 04:37 304 13.3
2020-Oct-01 04:32 304 13.3
2020-Oct-01 04:27 304 13.3
2020-Oct-01 04:22 304 13.3
2020-Oct-01 04:17 304 13.9
2020-Oct-01 04:12 304 13.9
2020-Oct-01 04:07 304 13.9
2020-Oct-01 04:02 270 13.9
2020-Oct-01 03:57 270 0 gusting 1 13.9
2020-Oct-01 03:52 270 0 gusting 2 13.9
2020-Oct-01 03:47 248 0 gusting 2 13.9
2020-Oct-01 03:42 170 0 gusting 2 13.9
2020-Oct-01 03:37 170 0 gusting 3 13.9
2020-Oct-01 03:32 182 13.9
2020-Oct-01 03:26 182 0 gusting 3 13.9
2020-Oct-01 03:21 186 1 gusting 3 13.9
2020-Oct-01 03:16 191 13.9
2020-Oct-01 03:11 191 13.9
2020-Oct-01 03:06 190 0 gusting 2 13.9
2020-Oct-01 03:01 190 0 gusting 2 13.9
2020-Oct-01 02:56 030 0 gusting 1 13.9
2020-Oct-01 02:51 033 13.9
2020-Oct-01 02:46 099 0 gusting 2 13.9
2020-Oct-01 02:40 102 13.9
2020-Oct-01 02:35 129 0 gusting 2 13.9
2020-Oct-01 02:30 013 13.9
2020-Oct-01 02:25 138 13.9
2020-Oct-01 02:20 138 13.9
2020-Oct-01 02:13 066 13.9
2020-Oct-01 02:08 066 14.4
2020-Oct-01 02:03 066 14.4
2020-Oct-01 01:58 066 14.4
2020-Oct-01 01:53 066 14.4
2020-Oct-01 01:48 066 14.4
2020-Oct-01 01:43 066 14.4
2020-Oct-01 01:38 066 14.4
2020-Oct-01 01:33 066 14.4
2020-Oct-01 01:28 066 14.4
2020-Oct-01 01:23 066 14.4
2020-Oct-01 01:18 066 14.4
2020-Oct-01 01:13 066 14.4
2020-Oct-01 01:08 066 14.4
2020-Oct-01 01:03 066 14.4
2020-Oct-01 00:57 066 14.4
2020-Oct-01 00:52 066 14.4
2020-Oct-01 00:47 066 15.0
2020-Oct-01 00:42 066 15.0
2020-Oct-01 00:37 066 15.0
2020-Oct-01 00:32 066 15.0
2020-Oct-01 00:27 066 15.0
2020-Oct-01 00:22 066 15.0
2020-Oct-01 00:17 066 15.0
2020-Oct-01 00:12 066 15.6
2020-Oct-01 00:06 066 15.6
2020-Oct-01 00:01 079 15.6
2020-Sep-30 23:56 079 15.6
2020-Sep-30 23:51 079 15.6
2020-Sep-30 23:46 137 15.6
2020-Sep-30 23:41 147 15.6
2020-Sep-30 23:36 147 16.1
2020-Sep-30 23:30 147 16.1
2020-Sep-30 23:25 147 16.1
2020-Sep-30 23:20 147 16.1
2020-Sep-30 23:15 147 16.7
2020-Sep-30 23:10 147 16.7
2020-Sep-30 23:05 147 16.7
2020-Sep-30 22:59 147 17.2
2020-Sep-30 22:54 147 17.2
2020-Sep-30 22:49 147 17.2
2020-Sep-30 22:44 174 17.8
2020-Sep-30 22:39 174 17.8
2020-Sep-30 22:34 174 17.8
2020-Sep-30 22:28 162 17.8
2020-Sep-30 22:23 162 18.3
2020-Sep-30 22:18 116 0 gusting 2 18.3
2020-Sep-30 22:13 116 0 gusting 2 18.3
2020-Sep-30 22:08 118 0 gusting 2 18.3
2020-Sep-30 22:03 166 0 gusting 2 18.9
2020-Sep-30 21:58 147 0 gusting 4 18.9
2020-Sep-30 21:53 224 0 gusting 6 18.9
2020-Sep-30 21:47 200 0 gusting 6 18.9
2020-Sep-30 21:42 267 1 gusting 6 18.9
2020-Sep-30 21:37 250 1 gusting 6 19.4
2020-Sep-30 21:32 181 1 gusting 5 19.4
2020-Sep-30 21:27 144 1 gusting 5 19.4
2020-Sep-30 21:22 011 1 gusting 5 19.4
2020-Sep-30 21:17 099 1 gusting 6 19.4
2020-Sep-30 21:12 062 0 gusting 8 20.0
2020-Sep-30 21:07 253 1 gusting 8 20.0
2020-Sep-30 21:02 177 2 gusting 8 20.0
2020-Sep-30 20:57 168 2 gusting 8 20.0
2020-Sep-30 20:52 138 0 gusting 5 20.6
2020-Sep-30 20:46 076 1 gusting 5 20.6
2020-Sep-30 20:41 253 1 gusting 6 20.6
2020-Sep-30 20:36 173 1 gusting 6 21.1
2020-Sep-30 20:31 359 0 gusting 6 21.1
2020-Sep-30 20:26 203 1 gusting 7 21.1
2020-Sep-30 20:21 160 1 gusting 7 21.1
2020-Sep-30 20:16 359 0 gusting 7 21.1
2020-Sep-30 20:11 128 0 gusting 5 21.7
2020-Sep-30 20:06 162 1 gusting 5 21.7
2020-Sep-30 20:01 165 2 gusting 6 21.7
2020-Sep-30 19:55 184 2 gusting 6 21.1
2020-Sep-30 19:50 166 0 gusting 6 21.1
2020-Sep-30 19:45 167 3 gusting 6 21.1
2020-Sep-30 19:40 077 1 gusting 7 21.1
2020-Sep-30 19:35 167 1 gusting 7 21.1
2020-Sep-30 19:30 207 2 gusting 7 21.1
2020-Sep-30 19:25 166 2 gusting 7 20.6
2020-Sep-30 19:20 170 3 gusting 7 20.6
2020-Sep-30 19:15 146 2 gusting 6 20.6
2020-Sep-30 19:10 152 1 gusting 8 21.1
2020-Sep-30 19:05 173 2 gusting 8 21.1
2020-Sep-30 19:00 184 2 gusting 8 21.1
2020-Sep-30 18:55 246 2 gusting 6 20.6
2020-Sep-30 18:50 043 1 gusting 6 20.6
2020-Sep-30 18:40 116 2 gusting 6 21.1
2020-Sep-30 18:34 145 2 gusting 6 21.1
2020-Sep-30 18:29 171 2 gusting 6 20.6
2020-Sep-30 18:24 202 1 gusting 6 20.6
2020-Sep-30 18:19 155 1 gusting 6 20.6
2020-Sep-30 18:14 208 0 gusting 6 20.0
2020-Sep-30 18:09 132 1 gusting 9 20.0
2020-Sep-30 18:04 170 1 gusting 9 20.0
2020-Sep-30 17:59 152 2 gusting 9 20.0
2020-Sep-30 17:54 013 3 gusting 9 20.0
2020-Sep-30 17:49 125 2 gusting 6 20.0
2020-Sep-30 17:44 141 2 gusting 12 19.4
2020-Sep-30 17:39 118 0 gusting 12 20.0
2020-Sep-30 17:34 041 1 gusting 12 20.0
2020-Sep-30 17:29 134 2 gusting 12 20.0
2020-Sep-30 17:24 133 2 gusting 8 20.0
2020-Sep-30 17:19 141 1 gusting 6 20.0
2020-Sep-30 17:14 132 1 gusting 6 19.4
2020-Sep-30 17:09 157 2 gusting 12 19.4
2020-Sep-30 17:04 164 2 gusting 12 19.4
2020-Sep-30 16:59 140 3 gusting 12 19.4
2020-Sep-30 16:54 188 4 gusting 12 19.4
2020-Sep-30 16:49 074 1 gusting 14 19.4
2020-Sep-30 16:43 185 1 gusting 14 19.4
2020-Sep-30 16:38 208 1 gusting 14 19.4
2020-Sep-30 16:33 177 4 gusting 14 19.4
2020-Sep-30 16:28 167 3 gusting 7 18.9
2020-Sep-30 16:23 203 1 gusting 10 18.9
2020-Sep-30 16:18 160 2 gusting 10 18.9
2020-Sep-30 16:13 157 2 gusting 10 18.3
2020-Sep-30 16:08 129 3 gusting 10 18.3
2020-Sep-30 16:03 159 2 gusting 8 18.3
2020-Sep-30 15:58 317 1 gusting 8 18.3
2020-Sep-30 15:53 159 2 gusting 8 18.3
2020-Sep-30 15:48 148 3 gusting 6 18.3
2020-Sep-30 15:43 103 3 gusting 6 18.3
2020-Sep-30 15:38 032 1 gusting 6 18.3
2020-Sep-30 15:33 132 1 gusting 8 17.8
2020-Sep-30 15:28 027 2 gusting 8 17.8
2020-Sep-30 15:23 171 2 gusting 8 17.8
2020-Sep-30 15:18 102 2 gusting 8 17.8
2020-Sep-30 15:13 110 2 gusting 6 17.8
2020-Sep-30 15:08 144 1 gusting 6 17.2
2020-Sep-30 15:03 070 2 gusting 6 17.2
2020-Sep-30 14:58 162 2 gusting 6 17.2
2020-Sep-30 14:53 163 1 gusting 6 16.7
2020-Sep-30 14:47 152 1 gusting 6 16.7
2020-Sep-30 14:42 172 2 gusting 9 16.7
2020-Sep-30 14:38 127 1 gusting 13 16.1
2020-Sep-30 14:32 089 3 gusting 13 16.1
2020-Sep-30 14:27 156 1 gusting 13 16.1
2020-Sep-30 14:22 170 2 gusting 13 15.6
2020-Sep-30 14:17 146 2 gusting 7 15.6
2020-Sep-30 14:11 158 2 gusting 6 15.6
2020-Sep-30 14:06 328 1 gusting 6 15.0
2020-Sep-30 14:01 139 2 gusting 6 15.0
2020-Sep-30 13:56 043 1 gusting 6 14.4
2020-Sep-30 13:51 116 2 gusting 6 14.4
2020-Sep-30 13:45 173 2 gusting 6 14.4
2020-Sep-30 13:40 187 1 gusting 5 13.9
2020-Sep-30 13:35 158 3 gusting 5 13.9
2020-Sep-30 13:25 224 1 gusting 6 13.9
2020-Sep-30 13:20 169 2 gusting 6 13.9
2020-Sep-30 13:14 163 3 gusting 7 13.3
2020-Sep-30 13:09 170 3 gusting 7 13.3
2020-Sep-30 13:04 167 1 gusting 7 13.3
2020-Sep-30 12:59 196 2 gusting 7 13.3
2020-Sep-30 12:54 180 1 gusting 6 13.3
2020-Sep-30 12:49 159 1 gusting 4 13.3
2020-Sep-30 12:44 156 1 gusting 4 12.8
2020-Sep-30 12:39 181 0 gusting 6 12.8
2020-Sep-30 12:34 190 1 gusting 9 12.8
2020-Sep-30 12:29 190 1 gusting 9 12.8
2020-Sep-30 12:23 185 2 gusting 9 12.8
2020-Sep-30 12:18 148 1 gusting 3 12.8
2020-Sep-30 12:14 145 1 gusting 2 12.2
2020-Sep-30 12:08 183 1 gusting 5 12.2
2020-Sep-30 12:03 159 1 gusting 5 12.2
2020-Sep-30 11:58 184 0 gusting 5 12.2
2020-Sep-30 11:53 178 2 gusting 5 12.2
2020-Sep-30 11:48 167 0 gusting 2 12.2
2020-Sep-30 11:43 140 0 gusting 2 12.2
2020-Sep-30 11:38 023 0 gusting 2 12.2
2020-Sep-30 11:33 164 12.2
2020-Sep-30 11:28 170 0 gusting 4 12.2
2020-Sep-30 11:23 167 0 gusting 4 12.2
2020-Sep-30 11:18 183 0 gusting 5 12.2
2020-Sep-30 11:13 175 12.2
2020-Sep-30 11:08 174 1 gusting 5 12.2
2020-Sep-30 11:03 193 2 gusting 5 12.2
2020-Sep-30 10:58 181 1 gusting 5 12.8
2020-Sep-30 10:52 129 1 gusting 5 12.8
2020-Sep-30 10:47 159 12.8
2020-Sep-30 10:42 206 2 gusting 5 12.8
2020-Sep-30 10:37 128 0 gusting 3 12.8
2020-Sep-30 10:32 165 1 gusting 3 12.8
2020-Sep-30 10:27 171 1 gusting 4 12.8
2020-Sep-30 10:22 175 1 gusting 4 12.8
2020-Sep-30 10:17 186 1 gusting 5 12.8
2020-Sep-30 10:12 131 1 gusting 5 12.8
2020-Sep-30 10:07 171 0 gusting 5 12.8
2020-Sep-30 10:02 167 1 gusting 4 12.8
2020-Sep-30 09:57 138 0 gusting 4 12.8
2020-Sep-30 09:52 154 1 gusting 4 12.8
2020-Sep-30 09:47 173 1 gusting 5 12.8
2020-Sep-30 09:42 159 0 gusting 5 12.8
2020-Sep-30 09:37 174 1 gusting 5 12.8
2020-Sep-30 09:31 190 1 gusting 5 12.8
2020-Sep-30 09:26 121 1 gusting 6 12.8
2020-Sep-30 09:21 166 0 gusting 6 12.8
2020-Sep-30 09:16 173 1 gusting 6 12.8
2020-Sep-30 09:11 168 12.8
2020-Sep-30 09:06 131 0 gusting 5 12.8
2020-Sep-30 09:01 098 0 gusting 2 12.8
2020-Sep-30 08:56 291 1 gusting 6 12.8
2020-Sep-30 08:51 166 1 gusting 6 12.8
2020-Sep-30 08:46 079 1 gusting 6 12.8
2020-Sep-30 08:41 118 0 gusting 6 12.8
2020-Sep-30 08:36 146 1 gusting 6 12.8
2020-Sep-30 08:31 149 1 gusting 6 12.8
2020-Sep-30 08:26 192 1 gusting 6 12.8
2020-Sep-30 08:20 181 0 gusting 6 12.8
2020-Sep-30 08:15 169 1 gusting 5 12.8
2020-Sep-30 08:10 196 0 gusting 5 12.8
2020-Sep-30 08:05 155 1 gusting 6 12.8
2020-Sep-30 08:00 160 1 gusting 6 12.8
2020-Sep-30 07:55 293 1 gusting 7 13.3
2020-Sep-30 07:50 194 1 gusting 7 13.3
2020-Sep-30 07:45 011 1 gusting 9 13.3
2020-Sep-30 07:40 163 2 gusting 9 13.3
2020-Sep-30 07:35 137 2 gusting 9 13.3
2020-Sep-30 07:30 175 2 gusting 9 13.3
2020-Sep-30 07:25 167 3 gusting 6 13.3
2020-Sep-30 07:20 163 2 gusting 6 13.3
2020-Sep-30 07:15 186 1 gusting 6 13.3
2020-Sep-30 07:10 179 2 gusting 6 13.3
2020-Sep-30 07:05 259 1 gusting 3 13.3
2020-Sep-30 07:00 171 1 gusting 2 13.3
2020-Sep-30 06:55 092 0 gusting 2 13.3
2020-Sep-30 06:50 175 1 gusting 2 13.3
2020-Sep-30 06:44 155 1 gusting 2 12.8
2020-Sep-30 06:39 144 12.8
2020-Sep-30 06:34 143 12.8
2020-Sep-30 06:29 143 0 gusting 4 12.8
2020-Sep-30 06:24 068 1 gusting 4 12.8
2020-Sep-30 06:19 085 0 gusting 2 12.8
2020-Sep-30 06:14 084 1 gusting 2 12.8
2020-Sep-30 06:09 100 12.8
2020-Sep-30 06:04 088 0 gusting 6 12.8
2020-Sep-30 05:59 084 0 gusting 6 12.8
2020-Sep-30 05:54 074 2 gusting 6 12.8
2020-Sep-30 05:49 106 12.8
2020-Sep-30 05:43 106 12.8
2020-Sep-30 05:38 106 12.8
2020-Sep-30 05:33 105 12.8
2020-Sep-30 05:28 108 0 gusting 2 12.8
2020-Sep-30 05:23 184 12.8
2020-Sep-30 05:18 184 0 gusting 2 13.3
2020-Sep-30 05:13 156 0 gusting 1 13.3
2020-Sep-30 05:08 088 13.3
2020-Sep-30 05:03 079 0 gusting 1 13.3
2020-Sep-30 04:58 075 0 gusting 1 13.3
2020-Sep-30 04:53 069 0 gusting 1 13.3
2020-Sep-30 04:48 049 13.3
2020-Sep-30 04:43 065 13.3
2020-Sep-30 04:38 065 13.3
2020-Sep-30 04:33 065 13.3
2020-Sep-30 04:28 078 0 gusting 1 13.3
2020-Sep-30 04:23 068 0 gusting 3 13.3
2020-Sep-30 04:17 083 0 gusting 3 13.3
2020-Sep-30 04:12 005 13.3
2020-Sep-30 04:07 004 0 gusting 3 13.3
2020-Sep-30 04:02 306 1 gusting 2 13.3
2020-Sep-30 03:57 037 13.3
2020-Sep-30 03:52 111 0 gusting 2 13.3
2020-Sep-30 03:47 019 1 gusting 2 13.9
2020-Sep-30 03:42 101 13.9
2020-Sep-30 03:37 121 0 gusting 3 13.9
2020-Sep-30 03:32 119 0 gusting 3 13.9
2020-Sep-30 03:27 208 1 gusting 3 13.9
2020-Sep-30 03:22 188 1 gusting 3 13.9
2020-Sep-30 03:17 144 13.9
2020-Sep-30 03:12 024 0 gusting 6 13.9
2020-Sep-30 03:07 030 1 gusting 6 13.9
2020-Sep-30 03:02 031 1 gusting 6 14.4
2020-Sep-30 02:57 020 1 gusting 5 14.4
2020-Sep-30 02:52 164 1 gusting 4 14.4
2020-Sep-30 02:46 075 0 gusting 5 14.4
2020-Sep-30 02:42 248 0 gusting 5 14.4
2020-Sep-30 02:36 148 1 gusting 5 15.0
2020-Sep-30 02:31 052 1 gusting 4 15.0
2020-Sep-30 02:26 095 1 gusting 4 15.0
2020-Sep-30 02:21 142 0 gusting 4 15.6
2020-Sep-30 02:16 233 1 gusting 4 15.6
2020-Sep-30 02:11 066 0 gusting 3 15.6
2020-Sep-30 02:06 296 0 gusting 4 15.6
2020-Sep-30 02:01 298 0 gusting 4 16.1
2020-Sep-30 01:56 091 0 gusting 4 16.1
2020-Sep-30 01:51 163 0 gusting 4 16.1
2020-Sep-30 01:45 302 16.1
2020-Sep-30 01:40 302 16.1
2020-Sep-30 01:35 304 16.1
2020-Sep-30 01:30 304 0 gusting 2 16.1
2020-Sep-30 01:25 245 0 gusting 1 16.1
2020-Sep-30 01:20 251 0 gusting 1 16.1
2020-Sep-30 01:15 245 16.1
2020-Sep-30 01:10 302 16.7
2020-Sep-30 01:05 005 0 gusting 2 16.7
2020-Sep-30 01:00 16.7
2020-Sep-30 00:55 085 0 gusting 5 16.7
2020-Sep-30 00:50 290 1 gusting 5 16.7
2020-Sep-30 00:40 168 1 gusting 4 17.2
2020-Sep-30 00:35 149 0 gusting 2 17.2
2020-Sep-30 00:30 114 1 gusting 2 17.2
2020-Sep-30 00:24 043 0 gusting 5 17.2
2020-Sep-30 00:19 058 0 gusting 5 17.8
2020-Sep-30 00:14 085 0 gusting 5 17.8
2020-Sep-30 00:09 255 1 gusting 5 17.8
2020-Sep-30 00:04 355 0 gusting 4 18.3
2020-Sep-29 23:59 238 0 gusting 3 18.3
2020-Sep-29 23:54 090 0 gusting 3 18.3
2020-Sep-29 23:49 18.3
2020-Sep-29 23:44 251 0 gusting 4 18.3
2020-Sep-29 23:39 259 0 gusting 4 18.9
2020-Sep-29 23:34 079 0 gusting 4 18.9
2020-Sep-29 23:29 278 0 gusting 2 18.9
2020-Sep-29 23:23 217 18.9
2020-Sep-29 23:18 303 0 gusting 2 19.4
2020-Sep-29 23:13 035 0 gusting 2 19.4
2020-Sep-29 23:08 082 20.0
2020-Sep-29 23:03 082 0 gusting 2 20.0
2020-Sep-29 22:58 268 20.0
2020-Sep-29 22:53 011 0 gusting 4 20.6
2020-Sep-29 22:48 036 0 gusting 4 20.6
2020-Sep-29 22:43 182 0 gusting 4 21.1
2020-Sep-29 22:38 351 1 gusting 4 21.1
2020-Sep-29 22:33 015 21.7
2020-Sep-29 22:28 214 0 gusting 4 22.2
2020-Sep-29 22:23 008 0 gusting 2 23.3
2020-Sep-29 22:17 064 1 gusting 3 23.3
2020-Sep-29 22:12 065 0 gusting 4 23.3
2020-Sep-29 22:07 264 0 gusting 4 23.3
2020-Sep-29 22:02 134 1 gusting 4 23.9
2020-Sep-29 21:57 141 0 gusting 4 23.9
2020-Sep-29 21:52 065 0 gusting 3 23.9
2020-Sep-29 21:47 112 0 gusting 4 23.9
2020-Sep-29 21:42 219 0 gusting 4 23.9
2020-Sep-29 21:37 181 1 gusting 4 23.9
2020-Sep-29 21:32 134 1 gusting 5 23.9
2020-Sep-29 21:27 175 0 gusting 5 23.9
2020-Sep-29 21:22 171 2 gusting 4 23.9
2020-Sep-29 21:17 145 1 gusting 4 24.4
2020-Sep-29 21:12 111 2 gusting 7 24.4
2020-Sep-29 21:07 202 1 gusting 7 24.4
2020-Sep-29 21:01 116 1 gusting 7 24.4
2020-Sep-29 20:56 126 1 gusting 7 24.4
2020-Sep-29 20:51 100 1 gusting 4 24.4
2020-Sep-29 20:46 127 1 gusting 4 24.4
2020-Sep-29 20:40 156 1 gusting 4 25.0
2020-Sep-29 20:35 147 1 gusting 4 25.0
2020-Sep-29 20:30 151 1 gusting 3 25.0
2020-Sep-29 20:25 190 1 gusting 6 25.0
2020-Sep-29 20:20 261 0 gusting 6 25.0
2020-Sep-29 20:15 160 1 gusting 6 25.0
2020-Sep-29 20:10 237 1 gusting 5 25.0
2020-Sep-29 20:05 178 1 gusting 5 25.6
2020-Sep-29 20:00 099 1 gusting 7 25.6
2020-Sep-29 19:54 189 1 gusting 7 25.0
2020-Sep-29 19:49 151 2 gusting 7 25.0
2020-Sep-29 19:44 203 1 gusting 6 25.6
2020-Sep-29 19:39 102 2 gusting 6 26.1
2020-Sep-29 19:34 069 1 gusting 6 26.1
2020-Sep-29 19:29 162 1 gusting 6 26.1
2020-Sep-29 19:24 162 1 gusting 4 26.7
2020-Sep-29 19:19 066 0 gusting 5 26.7
2020-Sep-29 19:14 029 0 gusting 5 26.7
2020-Sep-29 19:09 146 1 gusting 5 26.7
2020-Sep-29 19:04 083 1 gusting 4 26.7
2020-Sep-29 18:59 126 0 gusting 4 26.7
2020-Sep-29 18:53 295 0 gusting 4 26.7
2020-Sep-29 18:48 113 0 gusting 4 26.7
2020-Sep-29 18:43 048 1 gusting 3 26.7
2020-Sep-29 18:38 291 0 gusting 3 26.7
2020-Sep-29 18:33 156 0 gusting 3 26.1
2020-Sep-29 18:27 159 0 gusting 3 26.1
2020-Sep-29 18:22 046 1 gusting 5 25.6
2020-Sep-29 18:17 141 1 gusting 5 25.6
2020-Sep-29 18:12 182 1 gusting 5 25.0
2020-Sep-29 18:07 160 1 gusting 5 25.0
2020-Sep-29 18:01 158 2 gusting 5 25.6
2020-Sep-29 17:56 162 1 gusting 7 25.0
2020-Sep-29 17:51 115 0 gusting 7 25.0
2020-Sep-29 17:46 145 1 gusting 7 25.0
2020-Sep-29 17:41 208 1 gusting 7 25.0
2020-Sep-29 17:36 160 1 gusting 7 24.4
2020-Sep-29 17:31 170 1 gusting 3 24.4
2020-Sep-29 17:26 097 0 gusting 4 25.0
2020-Sep-29 17:21 172 25.0
2020-Sep-29 17:16 171 1 gusting 4 25.0
2020-Sep-29 17:10 219 1 gusting 4 25.0
2020-Sep-29 17:05 171 1 gusting 4 25.0
2020-Sep-29 17:00 109 25.0
2020-Sep-29 16:55 129 1 gusting 4 24.4
2020-Sep-29 16:50 103 24.4
2020-Sep-29 16:45 064 0 gusting 4 24.4
2020-Sep-29 16:39 157 2 gusting 4 24.4
2020-Sep-29 16:34 190 2 gusting 4 24.4
2020-Sep-29 16:29 177 1 gusting 6 24.4
2020-Sep-29 16:24 123 1 gusting 6 24.4
2020-Sep-29 16:19 180 2 gusting 6 24.4
2020-Sep-29 16:14 176 2 gusting 6 24.4
2020-Sep-29 16:09 103 0 gusting 4 24.4
2020-Sep-29 16:04 213 1 gusting 5 24.4
2020-Sep-29 15:59 068 1 gusting 5 24.4
2020-Sep-29 15:54 238 1 gusting 5 24.4
2020-Sep-29 15:49 096 1 gusting 5 23.9
2020-Sep-29 15:44 103 0 gusting 3 23.9
2020-Sep-29 15:38 006 1 gusting 3 23.9
2020-Sep-29 15:33 155 1 gusting 2 23.3
2020-Sep-29 15:28 071 0 gusting 2 23.3
2020-Sep-29 15:23 050 0 gusting 2 22.8
2020-Sep-29 15:18 009 22.8
2020-Sep-29 15:13 199 1 gusting 2 22.8
2020-Sep-29 15:08 126 0 gusting 1 22.2
2020-Sep-29 15:03 060 22.2